Weather in Lamidanda

Nepal     27°14′56″N   86°41′24″E
temp.,
°C
wind,
m/s
gust,
m/s
humid.,
%
clouds,
%
prec.,
mm/h
press.,
hPa
HPBL,
m
28 september, tue
tue2823:45+19ne228198 1.4 101222
02:45+19ene227978 0.0 101116
05:45+18ne328018 0.0 101122
08:45+23ssw11675 0.0 1012452
11:45+25sw227012 1.8 1011902
14:45+23sw2275100 4.6 1009546
17:45+20sw1189100 8.6 101011
20:45+19ne1189100 1.0 101312
29 september, wed
wed2923:45+19e2289100 2.4 101426
02:45+18ne3390100 2.8 101268
05:45+18ene228277 3.6 101223
08:45+22sw21729 0.0 1013413
11:45+24sw217142 0.1 10121004
14:45+23ssw227853 1.4 1009707
17:45+19s119424 3.8 101120
20:45+19e119138 1.8 101312
30 september, thu
thu3023:45+18ene119358 1.9 101312
02:45+19e118897 0.2 101114
05:45+18se019298 0.2 101211
08:45+21ssw118421 1.1 1014442
11:45+23ssw228296 6.6 1013619
14:45+22ssw2285100 6.0 1010460
17:45+19sw009599 9.7 101112
20:45+18ene1196100 0.5 101411
1 october, fri
fri123:45+18ese119152 0.6 101312
02:45+17ene118722 0.0 101113
05:45+17ene22875 0.0 101315
08:45+21ssw11789 0.0 1014533
11:45+23sw227595 0.9 1012895
14:45+22ssw218295 3.8 1010525
17:45+19nw0093100 5.6 101011
20:45+19ne2191100 0.4 101213
2 october, sat
sat223:45+18e118950 0.5 101211
02:45+17ene228756 0.0 101112
05:45+18ene228494 0.0 101115
08:45+20s118183 0.0 1013191
11:45+19sse1195100 1.8 1011140
14:45+18n1197100 5.0 100968
17:45+19ne228998 6.8 100927
20:45+19ene228584 0.1 101017